TimeMST,TemperatureF,Dew PointF,Humidity,Sea Level PressureIn,VisibilityMPH,Wind Direction,Wind SpeedMPH,Gust SpeedMPH,PrecipitationIn,Events,Conditions,WindDirDegrees,DateUTC
12:53 AM,10.9,1.0,64,30.47,10.0,Calm,Calm,-,N/A,,Clear,0,2013-01-05 07:53:00
1:53 AM,8.1,-0.0,70,30.48,10.0,Calm,Calm,-,N/A,,Clear,0,2013-01-05 08:53:00
2:53 AM,3.9,-2.9,73,30.48,10.0,SSW,3.5,-,N/A,,Clear,210,2013-01-05 09:53:00
3:53 AM,6.1,-2.9,67,30.49,10.0,Calm,Calm,-,N/A,,Clear,0,2013-01-05 10:53:00
4:53 AM,1.9,-5.1,72,30.55,10.0,Calm,Calm,-,N/A,,Clear,0,2013-01-05 11:53:00
5:53 AM,1.9,-5.1,72,30.61,10.0,Calm,Calm,-,N/A,,Clear,0,2013-01-05 12:53:00
6:53 AM,1.0,-7.1,69,30.66,10.0,Calm,Calm,-,N/A,,Clear,0,2013-01-05 13:53:00
7:53 AM,3.9,-5.1,66,30.66,10.0,ENE,3.5,-,N/A,,Clear,70,2013-01-05 14:53:00
8:53 AM,12.0,1.9,64,30.68,10.0,Calm,Calm,-,N/A,,Clear,0,2013-01-05 15:53:00
9:53 AM,19.9,6.1,55,30.62,10.0,Calm,Calm,-,N/A,,Clear,0,2013-01-05 16:53:00
10:53 AM,27.0,8.1,45,30.58,10.0,Calm,Calm,-,N/A,,Clear,0,2013-01-05 17:53:00
11:53 AM,32.0,10.0,40,30.51,10.0,Calm,Calm,-,N/A,,Clear,0,2013-01-05 18:53:00
12:53 PM,36.0,7.0,30,30.48,10.0,Calm,Calm,-,N/A,,Clear,0,2013-01-05 19:53:00
1:53 PM,39.0,3.0,22,30.46,10.0,Calm,Calm,-,N/A,,Clear,0,2013-01-05 20:53:00
2:53 PM,43.0,3.0,19,30.46,10.0,Calm,Calm,-,N/A,,Clear,0,2013-01-05 21:53:00
3:53 PM,44.1,5.0,20,30.45,10.0,North,3.5,-,N/A,,Clear,10,2013-01-05 22:53:00
4:53 PM,37.9,12.9,36,30.53,10.0,North,5.8,-,N/A,,Clear,10,2013-01-05 23:53:00
5:53 PM,27.0,10.0,49,30.63,10.0,Calm,Calm,-,N/A,,Clear,0,2013-01-06 00:53:00
6:53 PM,21.9,8.1,55,30.69,10.0,Calm,Calm,-,N/A,,Clear,0,2013-01-06 01:53:00
7:53 PM,17.1,6.1,62,30.72,10.0,Calm,Calm,-,N/A,,Clear,0,2013-01-06 02:53:00
8:53 PM,16.0,6.1,65,30.68,10.0,Calm,Calm,-,N/A,,Clear,0,2013-01-06 03:53:00
9:53 PM,12.9,3.9,67,30.63,10.0,Calm,Calm,-,N/A,,Clear,0,2013-01-06 04:53:00
10:53 PM,10.9,3.0,70,30.61,10.0,Calm,Calm,-,N/A,,Clear,0,2013-01-06 05:53:00
11:53 PM,10.0,1.9,70,30.58,10.0,Calm,Calm,-,N/A,,Clear,0,2013-01-06 06:53:00